User: anonymous   Login
Location: Antichan
(42.9728°N, 0.6667°E)
Time: 14:00:26
(UTC+00:00)
Language:

NOSS 0 Rocket - Orbit

View from above orbital plane
View from above orbital plane
View from above satellite
View from above satellite

Ground track
Ground track

The orbit data is extracted from the following two-line orbital elements,

1  5679U 71110B   20294.91993341 -.00000017 +00000-0 +30371-4 0  9990
2  5679 069.9995 017.9075 0015262 245.2210 114.7302 13.85343932083298
Epoch (UTC): 20 October 2020 22:04:42
Eccentricity: 0.0015262
inclination: 69.9995°
perigee height: 934 km
apogee height: 956 km
right ascension of ascending node: 17.9075°
argument of perigee: 245.2210°
revolutions per day: 13.85343932
mean anomaly at epoch: 114.7302°
orbit number at epoch: 8329

The dashed part of the orbit path shows where the satellite is in the earth's shadow,  

DLR